Regional Weather Roundup
Issued by NWS New Orleans/Baton Rouge, LA

Home | Current Version | Previous Version | Graphics & Text | Print | Product List | Glossary On
Versions: 1 2 3 4 5 6 7 8 9 10 11 12 13 14 15 16 17 18 19 20 21 22 23 24 25 26 27 28 29 30 31 32 33 34 35 36 37 38 39 40 41 42 43 44 45 46 47 48 49 50
240
ASUS44 KLIX 210311
RWRLIX
NEW ORLEANS REGIONAL WEATHER ROUNDUP
NATIONAL WEATHER SERVICE NEW ORLEANS LA
1000 PM CDT MON APR 20 2015

NOTE: "FAIR" INDICATES FEW OR NO CLOUDS BELOW 12,000 FEET WITH NO
      SIGNIFICANT WEATHER AND/OR OBSTRUCTIONS TO VISIBILITY.
      SKY/WX - SKY CONDITION AND SIGNIFICANT WEATHER.
      TMP - AIR TEMPERATURE.     DP    - DEWPOINT TEMPERATURE.
      RH  - RELATIVE HUMIDITY.   PRES  - PRESSURE.
      HI  - HEAT INDEX.          WCI   - WIND CHILL INDEX.

*  THESE STATIONS ARE NOT NWS OR FAA STATIONS AND ARE NOT UNDER
   NWS QUALITY CONTROL.

LAZ038-040-048-061>063-065>067-069-210400-
SOUTHEAST LOUISIANA

CITY           SKY/WX    TMP DP  RH WIND       PRES   REMARKS
N.O. AUDUBON     N/A     70  58  66 MISG        N/A
N.O. INTL ARPT CLOUDY    69  50  50 N8        29.97R
N.O. LAKEFRONT CLOUDY    73  52  47 NW15      29.97R
SLIDELL        CLOUDY    65  55  70 NW3       29.96R
BATON ROUGE    CLOUDY    62  56  80 CALM      29.98R
BOOTHVILLE     MOCLDY    71  61  70 NW7       29.96R
BELLE CHASSE   CLOUDY    69  53  56 N3        29.96R
BOGALUSA*        N/A     63  55  76 CALM      29.98R
GALLIANO*      CLOUDY    68  58  71 NW3       29.97R
NEW ROADS*       N/A     62  56  81 CALM      29.98R
GONZALES*        N/A     62  58  87 CALM      29.98R
HAMMOND*       CLOUDY    63  54  72 CALM      29.99R
HOUMA*         CLOUDY    66  56  70 NW5       29.97R
PORT FOURCHON* CLEAR     72  57  60 N10       29.99S

$$

MSZ070-080>082-210400-
SOUTHERN MISSISSIPPI

CITY           SKY/WX    TMP DP  RH WIND       PRES   REMARKS
MCCOMB         MOCLDY    58  52  80 CALM      29.98R
GULFPORT       PTCLDY    65  54  67 NW7       29.95R
BILOXI         PTCLDY    67  55  64 N3        29.94R
PASCAGOULA     PTCLDY    66  55  67 NW5       29.95R

$$

COASTAL OBSERVATIONS
LAKE AND NEARSHORE STATIONS

STATION/POSITION TIME  TEMP    WIND        PRES    WAVE
                       AIR SEA DIR/SP/G            HT/PER
                 (UTC) (F)     (DEG/KT/KT) (MB)    (FT/S)
PASCAGOULA       0200   70     320/  6/  9 1012.6
WAVELAND YACHT   0200   69 75  310/  6/  8 1013.7
GRAND ISLE       0200   74 77  350/  9/ 13 1013.5
SOUTHWEST PASS   0200   70 64  230/ 10/ 11 1013.8
NEW CANAL        0200   72     340/  5/ 10 1014.6
SHELL BEACH      0200   72 76  340/ 14/ 16 1013.3

OFFSHORE STATIONS

STATION/POSITION TIME  TEMP    WIND        PRES    WAVE
                       AIR SEA DIR/SP/G            HT/PER
                 (UTC) (F)     (DEG/KT/KT) (MB)    (FT/S)
64 S DAUPHIN ISL 0250   74 74  270/ 10/ 12 1014.0    3/ 7

$$




USA.gov is the U.S. government's official web portal to all federal, state and local government web resources and services.